[[{"header":{"parameterUnit":"m.s-1","parameterCategory":1,"la1":30.2991,"la2":30.254,"lo1":-89.0895,"lo2":-89.0444,"dy":0.0017,"dx":0.0017,"nx":28,"ny":28,"refTime":"2024-05-07T21:00:00:Z","depth":0,"parameterNumber":2,"parameterNumberName":"U-component_of_WINDS"},"data":[0,0,0,0,0,0,0,0,0,0,0,0,0,0,0,0,0,0,0,0,0,0,0,0,0,0,0,0,0,0,0,0,0,0,0,0,0,0,0,0,0,0,0,0,0,0,0,0,0,0,0,0,0,0,0,0,0,0,-0.585,-0.585,0,-0.5866,-0.5866,-0.5867,-0.5874,-0.5874,-0.5874,-0.5874,-0.5892,-0.5892,-0.5892,0,0,0,0,0,0,0,0,0,0,0,0,0,-0.5828,-0.5828,-0.585,-0.585,-0.585,-0.5866,-0.5866,-0.5867,-0.5874,-0.5874,-0.5874,-0.5874,-0.5891,-0.5892,-0.5892,0,0,0,0,0,0,0,0,0,0,0,0,0,-0.584,-0.5828,-0.585,-0.5856,-0.5857,-0.5866,-0.5866,-0.5867,-0.5874,-0.5874,-0.5874,-0.5874,-0.5891,-0.5892,-0.5893,-0.5897,0,0,-0.5895,-0.5895,0,0,0,0,0,0,0,0,-0.5839,-0.5841,-0.5855,-0.5856,-0.5857,-0.5868,-0.5865,-0.5877,-0.5874,-0.5868,-0.5874,-0.5874,-0.5884,-0.5885,-0.5888,-0.5898,-0.5898,-0.5895,-0.5895,-0.5895,-0.5896,0,0,0,0,0,0,0,-0.5838,-0.584,-0.5856,-0.5855,-0.5856,-0.5859,-0.5861,-0.5867,-0.5876,-0.5868,-0.5869,-0.5871,-0.5884,-0.5887,-0.5889,-0.5899,-0.5895,-0.5895,-0.5896,-0.5896,-0.5914,-0.5914,0,0,0,0,0,0,-0.5836,-0.5839,-0.5856,-0.5857,-0.5848,-0.5859,-0.5861,-0.5865,-0.5876,-0.5877,-0.5871,-0.5871,-0.5886,-0.5888,-0.5889,-0.5896,-0.5895,-0.5896,-0.5896,-0.5914,-0.5914,-0.5914,0,0,0,0,0,0,-0.5836,-0.5838,-0.5855,-0.5848,-0.5851,-0.586,-0.5863,-0.5865,-0.5868,-0.5877,-0.5879,-0.5872,-0.5886,-0.5888,-0.5895,-0.5896,-0.5896,-0.5897,-0.5914,-0.5914,-0.5914,-0.5908,0,0,0,0,0,0,-0.5835,-0.5838,-0.5839,-0.5848,-0.5851,-0.586,-0.5863,-0.5865,-0.5869,-0.587,-0.5879,-0.5881,-0.5887,-0.5894,-0.5896,-0.5897,-0.5897,-0.5914,-0.5914,-0.5914,-0.5908,-0.5908,-0.5908,0,0,0,0,0,-0.5834,-0.5837,-0.5839,-0.5841,-0.5853,-0.586,-0.5862,-0.5868,-0.5869,-0.5871,-0.5877,-0.5881,-0.5896,-0.5895,-0.5897,-0.5898,-0.5913,-0.5914,-0.5914,-0.5908,-0.5908,-0.5908,0,0,0,0,0,0,-0.5827,-0.5838,-0.5841,-0.5846,-0.5852,-0.5862,-0.5864,-0.5868,-0.5874,-0.5874,-0.5882,-0.5884,-0.589,-0.5895,-0.5893,-0.5904,-0.5905,-0.5906,-0.59,-0.59,-0.59,-0.5899,-0.5898,0,0,0,0,0,-0.5826,-0.5831,-0.584,-0.5844,-0.5847,-0.5855,-0.5858,-0.5863,-0.587,-0.5873,-0.5879,-0.5886,-0.5893,-0.5897,-0.5903,-0.5909,-0.5912,-0.5912,-0.5911,-0.5911,-0.5912,-0.5916,-0.5917,-0.5914,-0.5914,-0.5914,0,0,-0.5824,-0.583,-0.5833,-0.5843,-0.5848,-0.5854,-0.5857,-0.5862,-0.5867,-0.5873,-0.588,-0.5886,-0.5894,-0.5901,-0.5904,-0.5905,-0.5913,-0.5911,-0.5911,-0.5912,-0.5917,-0.5917,-0.5917,-0.5914,-0.5914,-0.5914,0,0,-0.5823,-0.5828,-0.5832,-0.5838,-0.5846,-0.5851,-0.5852,-0.5862,-0.5865,-0.5873,-0.5878,-0.5884,-0.5894,-0.59,-0.5905,-0.5908,-0.5911,-0.5909,-0.5908,-0.5913,-0.5913,-0.5913,-0.5915,-0.5915,-0.591,-0.591,-0.591,0,-0.5819,-0.5827,-0.5834,-0.5839,-0.5843,-0.585,-0.5855,-0.586,-0.587,-0.5873,-0.5874,-0.5888,-0.5894,-0.5903,-0.5904,-0.5907,-0.5909,-0.5908,-0.5912,-0.5913,-0.5913,-0.5915,-0.5915,-0.591,-0.591,-0.591,-0.591,0,-0.5823,-0.5828,-0.5831,-0.584,-0.5845,-0.585,-0.5858,-0.5862,-0.5866,-0.5872,-0.588,-0.5888,-0.5896,-0.5899,-0.5902,-0.5908,-0.5909,-0.5911,-0.5912,-0.5913,-0.5915,-0.5915,-0.5909,-0.5909,-0.5909,-0.5909,0,0,-0.5817,-0.5831,-0.5831,-0.5836,-0.5846,-0.5851,-0.5857,-0.5865,-0.5869,-0.5876,-0.5882,-0.5891,-0.5894,-0.5899,-0.5904,-0.5908,-0.5911,-0.591,-0.591,-0.591,-0.5918,-0.5917,-0.5918,-0.5913,-0.5913,-0.5913,-0.5918,0,-0.5817,-0.5827,-0.5834,-0.5842,-0.5848,-0.5854,-0.586,-0.5867,-0.5873,-0.5879,-0.5885,-0.5892,-0.5895,-0.5898,-0.5902,-0.5909,-0.5912,-0.5909,-0.5919,-0.5919,-0.5917,-0.5918,-0.5916,-0.592,-0.5919,-0.5919,-0.5919,0,-0.5819,-0.5826,-0.5835,-0.5845,-0.5848,-0.5852,-0.5861,-0.5867,-0.5876,-0.588,-0.5886,-0.5891,-0.5898,-0.5899,-0.591,-0.5908,-0.5913,-0.5917,-0.5917,-0.5918,-0.5919,-0.592,-0.5921,-0.5922,-0.592,-0.592,-0.592,0,-0.5815,-0.5826,-0.5833,-0.5837,-0.5849,-0.5853,-0.5858,-0.5867,-0.5872,-0.588,-0.5883,-0.5892,-0.5897,-0.5904,-0.5912,-0.5911,-0.5922,-0.5923,-0.5926,-0.5926,-0.5928,-0.5928,-0.593,-0.593,-0.593,-0.593,-0.593,0,-0.5815,-0.582,-0.5832,-0.5836,-0.5842,-0.585,-0.5856,-0.5862,-0.587,-0.5876,-0.5883,-0.5888,-0.5898,-0.5905,-0.5912,-0.592,-0.5922,-0.5926,-0.5928,-0.5926,-0.5925,-0.5929,-0.5929,-0.5931,-0.593,-0.593,-0.593,0,-0.5811,-0.5819,-0.5827,-0.5838,-0.5841,-0.5845,-0.5855,-0.586,-0.5866,-0.5874,-0.5876,-0.5886,-0.5895,-0.5904,-0.5916,-0.592,-0.5929,-0.5931,-0.5926,-0.5927,-0.5929,-0.5929,-0.5935,-0.5936,-0.5935,-0.5935,-0.5935,0,-0.5811,-0.5815,-0.5827,-0.5831,-0.5836,-0.5843,-0.5849,-0.5857,-0.5862,-0.5873,-0.5877,-0.5887,-0.5894,-0.5909,-0.5918,-0.5927,-0.593,-0.5931,-0.5931,-0.5929,-0.593,-0.593,-0.5931,-0.5931,-0.5931,-0.5931,-0.5931,0,-0.581,-0.5814,-0.5821,-0.583,-0.5836,-0.5843,-0.5851,-0.5854,-0.5864,-0.587,-0.5879,-0.5886,-0.5898,-0.5908,-0.5919,-0.5925,-0.593,-0.5931,-0.5932,-0.593,-0.5927,-0.5929,-0.5926,-0.593,-0.5931,-0.5931,-0.5931,-0.5931,-0.5808,-0.5812,-0.5822,-0.583,-0.5836,-0.5844,-0.5849,-0.5856,-0.5864,-0.5875,-0.5879,-0.5889,-0.5899,-0.5914,-0.592,-0.5928,-0.593,-0.5931,-0.5932,-0.5932,-0.5932,-0.5926,-0.593,-0.593,-0.593,-0.593,-0.593,0,-0.5808,-0.5814,-0.5822,-0.5832,-0.5839,-0.5843,-0.5852,-0.5857,-0.5865,-0.5874,-0.5882,-0.5893,-0.5903,-0.5913,-0.5924,-0.5928,-0.5931,-0.5931,-0.5931,-0.5932,-0.593,-0.5928,-0.5929,-0.5929,-0.5929,-0.5929,-0.5929,-0.5929,-0.5809,-0.5816,-0.5821,-0.5833,-0.584,-0.5849,-0.5854,-0.5861,-0.5868,-0.588,-0.5888,-0.5895,-0.5904,-0.5916,-0.5925,-0.5928,-0.5932,-0.5931,-0.5935,-0.5932,-0.5932,-0.5932,-0.5931,-0.5932,-0.5932,-0.5937,-0.5937,-0.5937]},{"header":{"parameterUnit":"m.s-1","parameterCategory":1,"la1":30.2991,"la2":30.254,"lo1":-89.0895,"lo2":-89.0444,"dy":0.0017,"dx":0.0017,"nx":28,"ny":28,"refTime":"2024-05-07T21:00:00:Z","depth":0,"parameterNumber":3,"parameterNumberName":"V-component_of_WINDS"},"data":[0,0,0,0,0,0,0,0,0,0,0,0,0,0,0,0,0,0,0,0,0,0,0,0,0,0,0,0,0,0,0,0,0,0,0,0,0,0,0,0,0,0,0,0,0,0,0,0,0,0,0,0,0,0,0,0,0,0,7.2685,7.2685,0,7.2732,7.2733,7.2733,7.2662,7.266,7.2657,7.2655,7.2698,7.2701,7.2705,0,0,0,0,0,0,0,0,0,0,0,0,0,7.2526,7.253,7.2685,7.2685,7.2686,7.2732,7.2733,7.2734,7.2663,7.266,7.2657,7.2654,7.2697,7.2701,7.2705,0,0,0,0,0,0,0,0,0,0,0,0,0,7.2587,7.2531,7.2685,7.2656,7.2654,7.2732,7.2733,7.2734,7.2663,7.266,7.2656,7.2653,7.2695,7.27,7.2706,7.2811,0,0,7.2721,7.2724,0,0,0,0,0,0,0,0,7.2583,7.2592,7.266,7.2659,7.2656,7.2688,7.2693,7.276,7.2664,7.266,7.2655,7.2651,7.2697,7.2702,7.2719,7.2813,7.2815,7.2722,7.2725,7.2727,7.2729,0,0,0,0,0,0,0,7.2579,7.259,7.2703,7.2661,7.2659,7.2639,7.2644,7.2705,7.2698,7.266,7.2655,7.2662,7.2695,7.2714,7.2719,7.2816,7.2722,7.2726,7.2729,7.2731,7.2998,7.3002,0,0,0,0,0,0,7.2579,7.2587,7.2702,7.2705,7.261,7.2645,7.265,7.2681,7.2698,7.2697,7.2665,7.2658,7.2707,7.2713,7.272,7.2844,7.2727,7.2732,7.2735,7.2994,7.2999,7.3003,0,0,0,0,0,0,7.2576,7.259,7.27,7.2645,7.2657,7.2652,7.2687,7.2684,7.2703,7.2702,7.2699,7.2686,7.2704,7.2713,7.2789,7.2845,7.2734,7.2739,7.2989,7.2996,7.3001,7.3094,0,0,0,0,0,0,7.2572,7.259,7.2631,7.2646,7.266,7.277,7.2691,7.2688,7.2713,7.2704,7.272,7.2719,7.2702,7.2782,7.2795,7.285,7.2743,7.2984,7.2992,7.2999,7.3086,7.3103,7.3117,0,0,0,0,0,7.2567,7.2655,7.2634,7.2648,7.2713,7.2774,7.2782,7.2762,7.2717,7.2758,7.2757,7.2719,7.2837,7.2791,7.2804,7.2862,7.2981,7.299,7.2999,7.3079,7.3099,7.3116,0,0,0,0,0,0,7.2644,7.2656,7.2633,7.2729,7.2751,7.2762,7.2812,7.2784,7.2817,7.2808,7.278,7.2784,7.2866,7.2871,7.2819,7.2964,7.2901,7.2913,7.2958,7.2977,7.2992,7.2988,7.2747,0,0,0,0,0,7.2673,7.2724,7.273,7.2814,7.2827,7.2818,7.2844,7.2827,7.2847,7.2856,7.286,7.2881,7.2922,7.295,7.2988,7.3087,7.3088,7.3133,7.3148,7.3161,7.3171,7.3223,7.3242,7.3033,7.3033,7.3033,0,0,7.2732,7.2745,7.2778,7.283,7.2845,7.2896,7.2826,7.2883,7.292,7.2864,7.2936,7.2941,7.2961,7.3049,7.3087,7.3056,7.323,7.3172,7.3183,7.3186,7.3234,7.3254,7.3271,7.3039,7.3038,7.3037,0,0,7.2865,7.2881,7.2952,7.2969,7.2994,7.2987,7.3004,7.302,7.3021,7.3093,7.3052,7.3094,7.3167,7.3183,7.3201,7.334,7.3306,7.3353,7.3433,7.3483,7.35,7.3514,7.3563,7.358,7.3364,7.3364,7.3364,0,7.2935,7.3013,7.2992,7.3052,7.3075,7.3029,7.3099,7.3116,7.3151,7.3167,7.3132,7.3222,7.3232,7.3322,7.3356,7.3373,7.339,7.3351,7.3499,7.3514,7.3527,7.3573,7.3591,7.337,7.3369,7.3368,7.3368,0,7.3096,7.315,7.3204,7.3241,7.3271,7.3336,7.3323,7.3355,7.3335,7.3332,7.3406,7.3417,7.3456,7.3476,7.3457,7.3564,7.3543,7.3504,7.344,7.3553,7.3595,7.3613,7.3378,7.3376,7.3374,7.3373,0,0,7.328,7.3305,7.3325,7.3341,7.3364,7.3404,7.3466,7.3507,7.3534,7.3559,7.3609,7.3672,7.3636,7.3656,7.3638,7.3682,7.3791,7.3637,7.3637,7.3664,7.3907,7.3936,7.3957,7.3768,7.3772,7.3774,7.3905,0,7.3412,7.3522,7.3505,7.3609,7.3658,7.3614,7.3668,7.3687,7.3686,7.3725,7.3722,7.3767,7.3717,7.3728,7.377,7.3769,7.3839,7.3759,7.3812,7.3815,7.3808,7.3979,7.4009,7.4132,7.3922,7.3924,7.3926,0,7.3581,7.3615,7.3725,7.374,7.376,7.3809,7.3844,7.3883,7.3903,7.3898,7.3921,7.3895,7.3954,7.389,7.3971,7.3918,7.3938,7.3941,7.3945,7.3948,7.3877,7.3986,7.4171,7.4189,7.3953,7.3951,7.3949,0,7.3702,7.3775,7.385,7.3865,7.3885,7.392,7.393,7.3946,7.3971,7.4001,7.4017,7.4053,7.4072,7.41,7.4083,7.4038,7.4167,7.4101,7.4163,7.4164,7.4191,7.4189,7.4382,7.4207,7.4206,7.4206,7.4206,0,7.3852,7.392,7.3905,7.3951,7.4026,7.4005,7.4079,7.4083,7.4098,7.4143,7.4107,7.4149,7.4125,7.4165,7.4152,7.422,7.4229,7.4226,7.4222,7.4229,7.4229,7.4241,7.4232,7.4211,7.421,7.4209,7.4208,0,7.4,7.3992,7.4071,7.4084,7.4089,7.4143,7.4153,7.4195,7.4191,7.4248,7.426,7.4253,7.4298,7.4284,7.4332,7.4323,7.441,7.4395,7.4404,7.4399,7.4462,7.4456,7.4667,7.4693,7.4503,7.4505,7.4506,0,7.4095,7.4147,7.4166,7.4194,7.4207,7.4253,7.4278,7.4259,7.4287,7.4313,7.4352,7.4394,7.4426,7.45,7.4498,7.4534,7.4519,7.4591,7.4524,7.4529,7.4518,7.4515,7.452,7.4603,7.4606,7.4607,7.4609,0,7.4264,7.4258,7.4298,7.4336,7.4368,7.4397,7.4422,7.4447,7.4429,7.4462,7.4508,7.4533,7.4583,7.4624,7.4657,7.4665,7.4634,7.463,7.4646,7.4653,7.4656,7.4654,7.4439,7.4625,7.4623,7.4622,7.4621,7.4621,7.4388,7.4432,7.4452,7.4497,7.4514,7.4539,7.4579,7.458,7.4619,7.4659,7.4645,7.4697,7.4714,7.4756,7.4768,7.4807,7.478,7.4803,7.4809,7.4815,7.4822,7.4651,7.4813,7.4813,7.4812,7.4812,7.4812,0,7.4554,7.4565,7.4607,7.4644,7.4679,7.4649,7.4675,7.4705,7.4753,7.4773,7.4806,7.4858,7.4898,7.49,7.4937,7.4968,7.4955,7.4978,7.4975,7.4977,7.4845,7.4827,7.4989,7.4989,7.4989,7.4988,7.4988,7.4988,7.4645,7.4718,7.4714,7.4794,7.4803,7.4857,7.4874,7.4895,7.4911,7.4972,7.5006,7.5007,7.5019,7.5056,7.5091,7.509,7.5105,7.5134,7.5128,7.5004,7.4987,7.497,7.4953,7.5138,7.5138,7.5256,7.5257,7.5258]}]]